Regional Weather Roundup
Issued by NWS Charleston, SC

Current Version | Previous Version | Graphics & Text | Print | Product List | Glossary On
Versions: 1 2 3 4 5 6 7 8 9 10 11 12 13 14 15 16 17 18 19 20 21 22 23 24 25 26 27 28 29 30 31 32 33 34 35 36 37 38 39 40 41 42 43 44 45 46 47 48 49 50
000
ASUS42 KCHS 010012
RWRCHS

REGIONAL WEATHER ROUNDUP
NATIONAL WEATHER SERVICE CHARLESTON SC
800 PM EDT FRI JUL 31 2015

NOTE: "FAIR" INDICATES FEW OR NO CLOUDS BELOW 12,000 FEET WITH NO
SIGNIFICANT WEATHER AND/OR OBSTRUCTIONS TO VISIBILITY.

NOT ALL STATIONS ARE QUALITY CONTROLLED BY THE NATIONAL
WEATHER SERVICE. USE DATA WITH CAUTION...ESPECIALLY
DEWPOINT OBSERVATIONS.

SCZ027-030-031-034>040-042>050-010100-
...SOUTHEAST SOUTH CAROLINA...

CITY           SKY/WX    TMP DP  RH WIND       PRES   REMARKS
N CHARLESTON   CLOUDY    80  74  81 SW6       29.90F
6HR MIN TEMP:  80; 6HR MAX TEMP:  90;

WATERFRONT PRK   N/A     83  78  84 SW7       29.87S HX  93
MOUNT PLEASANT LGT RAIN  82  79  89 SW7       29.90F HX  93
JOHNS ISLAND   MOCLDY    84  77  79 S6        29.91S HX  94
PINOPOLIS      NOT AVBL
MONCKS CORNER  LGT RAIN  77  73  88 CALM      29.90R
SUMMERVILLE    FAIR      77  77 100 CALM      29.90F
BEAUFORT MCAS  CLOUDY    78  75  90 CALM      29.90F
6HR MIN TEMP:  78; 6HR MAX TEMP:  89; 6HR PCP:  0.02;

BEAUFORT ARPT  FAIR      79  73  83 CALM      29.90F
HILTON HEAD IS MOCLDY    79  73  83 CALM      29.91F
WALTERBORO     CLOUDY    79  75  89 SW5       29.90F
ALLENDALE      FAIR      82  73  74 S3        29.89F

...SOUTHERN MIDLANDS AND PEE DEE...

CITY           SKY/WX    TMP DP  RH WIND       PRES   REMARKS
GEORGETOWN     NOT AVBL
KINGSTREE      NOT AVBL
ORANGEBURG     PTCLDY    80  74  81 S5        29.89F
6HR MIN TEMP:  78; 6HR MAX TEMP:  96; 6HR PCP:  0.26;

BARNWELL       FAIR      84  75  74 S3        29.90F HX  92
AIKEN          MOCLDY    86  70  58 S6        29.94R HX  90
MANNING        RAIN      81  70  69 CALM      29.91R
COLUMBIA       MOCLDY    93  66  40 CALM      29.88R HX  96
6HR MIN TEMP:  92; 6HR MAX TEMP:  97;

SUMTER         CLOUDY    87  72  61 S14       29.88R HX  93
6HR MIN TEMP:  87; 6HR MAX TEMP:  96;

FLORENCE       CLOUDY    88  73  61 S16G24    29.89R HX  95
6HR MIN TEMP:  88; 6HR MAX TEMP:  96;

MYRTLE BEACH   MOCLDY    82  75  78 SW14      29.92R
N MYRTLE BEACH CLOUDY    83  76  79 SW13      29.91S HX  91
6HR MIN TEMP:  83; 6HR MAX TEMP:  89;


$$

GAZ063-065-086>088-099>101-113>116-118-119-134>141-150-010100-
...SOUTHEAST GEORGIA...

CITY           SKY/WX    TMP DP  RH WIND       PRES   REMARKS
SAVANNAH ARPT  CLOUDY    78  75  90 N3        29.91S
6HR MIN TEMP:  75; 6HR MAX TEMP:  89; 6HR PCP:  0.06;

HUNTER AAF     MOCLDY    80  76  89 N3        29.88S
6HR MIN TEMP:  78; 6HR MAX TEMP:  86;

FORT STEWART   CLOUDY    77  77 100 CALM      29.89R
                                      6HR PCP:  0.48;

STATESBORO     CLOUDY    76  51  40 CALM      29.90S
SYLVANIA       CLOUDY    78  76  94 CALM      29.91F
CLAXTON        NOT AVBL

...CSRA...CENTRAL AND FAR SOUTHEAST GEORGIA...

CITY           SKY/WX    TMP DP  RH WIND       PRES   REMARKS
THOMSON        PTCLDY    87  76  70 S6        29.95R HX  96
AUGUSTA-BUSH   PTCLDY    85  72  65 SW10      29.88S HX  91
6HR MIN TEMP:  85; 6HR MAX TEMP:  95;

AUGUSTA-DANIEL PTCLDY    86  72  62 SW5       29.91R HX  92
SWAINSBORO     FAIR     N/A N/A N/A S3        29.92R
VIDALIA        CLOUDY    77  73  88 CALM      29.91R
EASTMAN        LGT RAIN  76  76 100 CALM      29.93S
HAZLEHURST     FAIR      80  77  89 CALM      29.91R
ALMA           CLOUDY    79  75  87 S12       29.92R
6HR MIN TEMP:  79; 6HR MAX TEMP:  92;

WAYCROSS       TSTM      78  78  99 SW8       29.90F
JESUP          HVY RAIN  79  77  94 CALM      29.93R
BAXLEY         FAIR      79  73  83 S5        29.92R
BRUNSWICK      CLOUDY    79  73  83 SW8       29.94R
SAINT SIMONS   TSTM      74  73  97 SW21G26   29.94R VSB 1/4
6HR MIN TEMP:  74; 6HR MAX TEMP:  90; 6HR PCP:  2.65;


$$

SCZ027-028-034-036>038-045-046-048>050-GAZ119-141-010100-
...LAKE AND SUPPLEMENTAL COASTAL OBSERVATIONS...

STATION/POSITION TIME  TEMP    WIND        PRES    WAVE   SWELL
                       AIR SEA DIR/SP/G            HT/PER HT/PER/DIR
                 (UTC) (F)     (DEG/KT/KT) (MB)    (FT/S) (FT/S/D)
UPR LAKE MARION  NOT AVBL
WINYAH BAY       NOT AVBL
LAKE MURRAY      2300   91     250/  4/  5 1011.2S
ACE BASIN NERRS  NOT AVBL
FORT PULASKI     2300   80 86  350/  5/  6 1013.0F
SAPELO ISLAND    2300   80     170/  3     1012.0F

$$

ANZ835-935-AMZ111-154-330-350-352-354-370-450-454-472-010100-
...C-MAN AND BUOY OBSERVATIONS...

STATION/POSITION TIME  TEMP    WIND        PRES    WAVE   SWELL
                       AIR SEA DIR/SP/G            HT/PER HT/PER/DIR
                 (UTC) (F)     (DEG/KT/KT) (MB)    (FT/S) (FT/S/D)
BUOY 41004       2350   82 84  190/ 14/ 16 1012.5R   3/ 8   2/ 8
BUOY 41008       2350   82 83  170/ 16/ 17 1012.5R   2/ 3   2/120/ 6
FOLLY BEACH CMAN 2300   83     210/ 13/ 15 1013.0R
CAPERS NEARSHORE 2308   82     220/ 16/ 21 1012.6F
FRIPP NEARSHORE  2300   83     220/ 10/ 12 1012.3F


STATION/POSITION TIME  TEMP    WIND        PRES    WAVE   SWELL
                       AIR SEA DIR/SP/G            HT/PER HT/PER/DIR
                 (UTC) (F)     (DEG/KT/KT) (MB)    (FT/S) (FT/S/D)
5E ST. MARYS GA  2321      84                N/A     3/ 4
FRYING PAN BUOY  2350   83 85  220/ 16/ 17 1013.0R   4/ 6   2/110/ 8
BUOY 41025       2250   81 86  360/  4/  6 1012.6    4/ 9   3/130/ 9
CAPE LOOKOUT NC  2300   79      80/  8/  9 1012.4R
BUOY 41002       2350   82 81  230/ 16/ 19 1015.2R   8/ 8   2/ 50/11
BUOY 41010       2320   83 84  170/ 12/ 16 1015.0S
ST AUGUSTINE FL  0000   82 83  220/  8/  9 1013.8R


$$



USA.gov is the U.S. government's official web portal to all federal, state and local government web resources and services.